Flag for Ukraine Weather past 2 weeks in Kryvyi Rih, Ukraine

Now
88 °F

Passing clouds.


Feels Like: 87 °F
Forecast: 69 / 94 °F
Wind: 8 mph from Southwest

Location: Krivyy Rih / Dnipropetrovs'k

Current Time: Sep 1, 2015 at 1:32:53 PM

Latest Report: Sep 1, 2015 at 1:00 PM


Visibility: N/A

Pressure: 29.95 "Hg

Humidity: 38%

Dew point: 59 °F

Location of Kryvyi RihLocation

Historic Weather in Kryvyi Rih — Graph

°F

Kryvyi Rih temperature yesterday

Maximum temperature yesterday: 90 °F (at 3:00 PM)
Minimum temperature yesterday: 54 °F (at 6:00 AM)
Average temperature yesterday: 73 °F

Past Weeks' High & Low Weather Summary

 TemperatureHumidityPressure
High95 °F (Aug 29, 4:00 PM)82% (Aug 19, 4:00 AM)30.24 "Hg (Aug 19, 4:00 AM)
Low50 °F (Aug 22, 5:00 AM)16% (Aug 26, 4:00 PM)29.86 "Hg (Aug 18, 5:30 AM)
Average70 °F47%30.08 "Hg
* Reported Aug 17 12:00 Noon — Sep 1 12:30 PM, Kryvyi Rih, Weather by CustomWeather, © 2015

Note: Actual official high and low records may vary slightly from our data, if they occured in-between our weather recording intervals... More about our weather records

Advertising

Kryvyi Rih weather history for previous 24 hours

 ConditionsComfort  
Time TempWeatherWind HumidityBarometerVisibility
12:30 PM
Tue, Sep 1
84 °FPassing clouds.8 mph48%29.98 "HgN/A
12:00 PM84 °FPassing clouds.8 mph48%29.98 "HgN/A
11:30 AM82 °FPassing clouds.6 mph45%29.98 "HgN/A
11:00 AM82 °FPassing clouds.6 mph45%29.98 "HgN/A
10:30 AM79 °FPassing clouds.3 mph51%29.98 "HgN/A
10:00 AM79 °FSunny.No wind51%30.01 "Hg10 mi
9:30 AM73 °FSunny.No wind65%30.01 "Hg10 mi
9:00 AM70 °FSunny.1 mph64%30.01 "Hg10 mi
8:30 AM70 °FSunny.3 mph64%30.01 "Hg10 mi
8:00 AM70 °FSunny.3 mph64%30.01 "Hg10 mi
6:30 AM64 °FPartly cloudy.3 mph73%29.98 "HgN/A
6:00 AM64 °FPassing clouds.1 mph73%29.98 "HgN/A
5:30 AM64 °FPassing clouds.6 mph73%29.98 "HgN/A
5:00 AM64 °FPassing clouds.No wind73%29.98 "HgN/A
4:30 AM64 °FPassing clouds.3 mph68%29.98 "HgN/A
3:30 AM66 °FPassing clouds.3 mph64%30.01 "HgN/A
3:00 AM66 °FPassing clouds.6 mph64%30.01 "HgN/A
2:30 AM66 °FClear.6 mph60%30.01 "Hg10 mi
2:00 AM66 °FClear.6 mph60%30.01 "Hg10 mi
12:30 AM68 °FPassing clouds.3 mph56%30.04 "HgN/A
12:00 AM68 °FPassing clouds.3 mph56%30.01 "HgN/A
11:30 PM
Mon, Aug 31
70 °FClear.1 mph53%30.04 "Hg10 mi
11:00 PM70 °FClear.No wind53%30.04 "Hg10 mi
10:30 PM77 °FClear.No wind44%30.04 "Hg10 mi
10:00 PM77 °FClear.6 mph44%30.04 "Hg10 mi
9:30 PM82 °FClear.1 mph37%30.04 "Hg10 mi
9:00 PM82 °FClear.6 mph37%30.04 "Hg10 mi
8:30 PM82 °FSunny.8 mph35%30.01 "Hg10 mi
8:00 PM82 °FPassing clouds.6 mph35%30.01 "HgN/A
7:30 PM88 °FSunny.No wind29%30.01 "Hg10 mi
7:00 PM88 °FSunny.3 mph29%30.01 "Hg10 mi
6:30 PM88 °FSunny.10 mph27%30.01 "Hg10 mi
6:00 PM88 °FSunny.8 mph27%30.01 "Hg10 mi
5:30 PM90 °FPassing clouds.6 mph26%30.01 "HgN/A
5:00 PM90 °FSunny.13 mph26%30.04 "Hg10 mi
4:30 PM90 °FPassing clouds.8 mph24%30.04 "HgN/A
4:00 PM90 °FPassing clouds.8 mph24%30.04 "HgN/A
3:30 PM90 °FPassing clouds.6 mph22%30.07 "HgN/A
3:00 PM90 °FPassing clouds.8 mph22%30.07 "HgN/A
2:30 PM88 °FPassing clouds.3 mph24%30.07 "HgN/A
2:00 PM88 °FPassing clouds.6 mph24%30.09 "HgN/A
1:30 PM84 °FPassing clouds.8 mph25%30.09 "HgN/A
1:00 PM84 °FPassing clouds.6 mph25%30.09 "HgN/A
Weather by CustomWeather, © 2015

See weather overviewHow to use our weather pages